Flag Weather past 2 weeks in Skagen, Denmark

Now
36 °F

Overcast.


Feels Like: 27 °F
Forecast: 39 / 41 °F
Wind: 12 mph from Southeast

Location: Gothenburg / Save

Current Time: Nov 28, 2014 at 11:02:57 PM

Latest Report: Nov 28, 2014 at 10:20 PM


Visibility: N/A

Pressure: 30.42 "Hg

Humidity: 65%

Dew point: 25 °F

Location of SkagenLocation

Historic Weather in Skagen — Graph

°F

Skagen temperature yesterday

Maximum temperature yesterday: 39 °F (at 7:20 AM)
Minimum temperature yesterday: 36 °F (at 6:50 PM)
Average temperature yesterday: 37 °F

Past Weeks' High & Low Weather Summary

 TemperatureHumidityPressure
High50 °F (Nov 25, 1:20 PM)100% (Nov 21, 5:50 AM)30.42 "Hg (Nov 21, 5:50 AM)
Low30 °F (Nov 25, 8:20 AM)70% (Nov 28, 8:20 PM)29.77 "Hg (Nov 24, 5:20 AM)
Average41 °F87%30.16 "Hg
* Reported Nov 13 9:20 PM — Nov 28 9:50 PM, Skagen, Weather by CustomWeather, © 2014

Note: Actual official high and low records may vary slightly from our data, if they occured in-between our weather recording intervals... More about our weather records

Advertising

Skagen weather history for previous 24 hours

 ConditionsComfort  
Time TempWeatherWind HumidityBarometerVisibility
9:50 PM
Nov 28
36 °FPassing clouds.8 mph70%30.42 "HgN/A
9:20 PM36 °FPassing clouds.14 mph70%30.39 "HgN/A
8:50 PM36 °FPassing clouds.10 mph70%30.39 "HgN/A
8:20 PM36 °FPassing clouds.9 mph70%30.39 "HgN/A
7:50 PM36 °FPassing clouds.8 mph75%30.39 "HgN/A
7:20 PM36 °FPassing clouds.6 mph75%30.36 "HgN/A
6:50 PM36 °FPassing clouds.6 mph75%30.36 "HgN/A
5:50 PM36 °FOvercast.6 mph75%30.36 "HgN/A
5:20 PM36 °FPassing clouds.7 mph75%30.36 "HgN/A
4:50 PM34 °FPassing clouds.6 mph93%30.36 "HgN/A
4:20 PM34 °FPassing clouds.6 mph93%30.36 "HgN/A
3:50 PM34 °FPassing clouds.6 mph93%30.33 "HgN/A
3:20 PM34 °FPassing clouds.6 mph93%30.33 "HgN/A
2:50 PM36 °FPassing clouds.6 mph87%30.33 "HgN/A
2:20 PM36 °FPassing clouds.6 mph87%30.33 "HgN/A
1:50 PM36 °FBroken clouds.8 mph87%30.33 "HgN/A
1:20 PM36 °FScattered clouds.12 mph87%30.33 "HgN/A
12:50 PM37 °FScattered clouds.10 mph87%30.33 "HgN/A
12:20 PM37 °FSunny.7 mph87%30.33 "Hg10 mi
11:50 AM37 °FPassing clouds.5 mph87%30.33 "HgN/A
11:20 AM37 °FSunny.6 mph81%30.33 "Hg10 mi
10:58 AM37 °FSunny.6 mph81%30.33 "Hg10 mi
10:20 AM36 °FSunny.7 mph87%30.33 "Hg10 mi
9:50 AM36 °FSunny.5 mph87%30.33 "Hg10 mi
9:20 AM36 °FPassing clouds.3 mph87%30.33 "HgN/A
8:50 AM36 °FSunny.5 mph87%30.33 "Hg10 mi
8:20 AM36 °FClear.9 mph87%30.30 "Hg10 mi
7:50 AM36 °FClear.5 mph87%30.30 "Hg10 mi
7:20 AM37 °FPassing clouds.8 mph87%30.30 "HgN/A
6:50 AM36 °FPassing clouds.8 mph93%30.27 "HgN/A
6:20 AM36 °FMostly cloudy.9 mph93%30.27 "HgN/A
5:50 AM36 °FLow clouds.12 mph93%30.27 "HgN/A
5:20 AM36 °FPartly cloudy.7 mph87%30.27 "HgN/A
4:20 AM36 °FClear.8 mph87%30.24 "Hg10 mi
3:50 AM36 °FClear.8 mph87%30.24 "Hg10 mi
3:20 AM36 °FClear.6 mph87%30.24 "Hg10 mi
2:50 AM36 °FClear.7 mph87%30.24 "Hg10 mi
2:20 AM36 °FClear.8 mph87%30.24 "Hg10 mi
1:50 AM36 °FClear.8 mph87%30.24 "Hg10 mi
1:20 AM36 °FClear.9 mph87%30.24 "Hg10 mi
12:50 AM36 °FClear.8 mph87%30.21 "Hg10 mi
12:20 AM36 °FClear.8 mph87%30.21 "Hg10 mi
11:50 PM
Nov 27
36 °FClear.7 mph87%30.21 "Hg10 mi
11:20 PM36 °FClear.7 mph87%30.21 "Hg10 mi
Weather by CustomWeather, © 2014

See weather overviewHow to use our weather pages